• In Russia
  • List of Countries
  • For 7 days
  • Water Temperature
  • Satellite Maps
  • Weather Map
  • Weather Widgets
  • user-avatar
    Login

    Hourly Weather Melbourne

    Today, 19 January, Friday

    Time Temperature Precipitation Wind Pressure Humidity
    00:00 +29°C° 0 mm 3 mps 757 mmHg 21%
    01:00 +28°C° 0 mm 3 mps 757 mmHg 22%
    02:00 +27°C° 0 mm 3 mps 757 mmHg 23%
    03:00 +27°C° 0 mm 3 mps 757 mmHg 23%
    04:00 +26°C° 0 mm 3 mps 757 mmHg 23%
    05:00 +27°C° 0 mm 4 mps 757 mmHg 23%
    06:00 +28°C° 0 mm 4 mps 757 mmHg 23%
    07:00 +29°C° 0 mm 5 mps 758 mmHg 23%
    08:00 +33°C° 0 mm 5 mps 758 mmHg 20%
    09:00 +36°C° 0 mm 5 mps 758 mmHg 17%
    10:00 +39°C° 0 mm 5 mps 758 mmHg 14%
    11:00 +41°C° 0 mm 5 mps 757 mmHg 13%
    12:00 +42°C° 0 mm 4 mps 757 mmHg 11%
    13:00 +44°C° 0 mm 4 mps 756 mmHg 10%
    14:00 +43°C° 0 mm 3 mps 756 mmHg 12%
    15:00 +43°C° 0 mm 3 mps 756 mmHg 13%
    16:00 +43°C° 0 mm 3 mps 755 mmHg 15%
    17:00 +39°C° 0 mm 3 mps 755 mmHg 21%
    18:00 +36°C° 0 mm 3 mps 755 mmHg 27%
    19:00 +33°C° 0 mm 3 mps 755 mmHg 33%
    20:00 +30°C° 0 mm 3 mps 756 mmHg 41%
    21:00 +27°C° 0 mm 3 mps 756 mmHg 49%
    22:00 +25°C° 0 mm 3 mps 757 mmHg 57%
    23:00 +24°C° 0 mm 3 mps 757 mmHg 63%

    Tomorrow, 20 January, Saturday

    Time Temperature Precipitation Wind Pressure Humidity
    00:00 +22°C° 0 mm 3 mps 757 mmHg 69%
    01:00 +21°C° 0 mm 2 mps 757 mmHg 75%
    02:00 +21°C° 0 mm 2 mps 757 mmHg 77%
    03:00 +21°C° 0 mm 2 mps 757 mmHg 79%
    04:00 +21°C° 0 mm 2 mps 757 mmHg 82%
    05:00 +22°C° 0 mm 1 mps 758 mmHg 80%
    06:00 +23°C° 0 mm 1 mps 758 mmHg 78%
    07:00 +23°C° 0 mm 1 mps 758 mmHg 76%
    08:00 +26°C° 0 mm 1 mps 758 mmHg 65%
    09:00 +28°C° 0 mm 2 mps 758 mmHg 54%
    10:00 +31°C° 0 mm 2 mps 758 mmHg 43%
    11:00 +34°C° 0 mm 2 mps 758 mmHg 39%
    12:00 +35°C° 0 mm 3 mps 757 mmHg 36%
    13:00 +36°C° 0 mm 3 mps 757 mmHg 33%
    14:00 +36°C° 0 mm 3 mps 756 mmHg 36%
    15:00 +35°C° 0 mm 4 mps 756 mmHg 39%
    16:00 +34°C° 0 mm 4 mps 755 mmHg 43%
    17:00 +32°C° 0 mm 4 mps 756 mmHg 48%
    18:00 +29°C° 0 mm 4 mps 756 mmHg 54%
    19:00 +27°C° 0 mm 5 mps 756 mmHg 60%
    20:00 +26°C° 0 mm 4 mps 757 mmHg 66%
    21:00 +25°C° 0 mm 3 mps 757 mmHg 72%
    22:00 +24°C° 0 mm 2 mps 758 mmHg 78%
    23:00 +24°C° 0 mm 2 mps 757 mmHg 77%

    Day after tomorrow, 21 January, Sunday

    Time Temperature Precipitation Wind Pressure Humidity
    00:00 +24°C° 0 mm 1 mps 757 mmHg 76%
    01:00 +24°C° 0 mm 1 mps 756 mmHg 76%
    02:00 +24°C° 0 mm 1 mps 756 mmHg 72%
    03:00 +24°C° 0 mm 1 mps 755 mmHg 68%
    04:00 +25°C° 0 mm 1 mps 755 mmHg 65%
    05:00 +25°C° 0 mm 1 mps 755 mmHg 64%
    06:00 +25°C° 0 mm 1 mps 755 mmHg 64%
    07:00 +26°C° 0 mm 1 mps 755 mmHg 63%
    08:00 +28°C° 0 mm 1 mps 755 mmHg 55%
    09:00 +30°C° 0 mm 1 mps 755 mmHg 47%
    10:00 +33°C° 0 mm 1 mps 755 mmHg 39%
    11:00 +32°C° 0.2 mm 1 mps 755 mmHg 43%
    12:00 +32°C° 0.2 mm 1 mps 754 mmHg 47%
    13:00 +31°C° 0.2 mm 1 mps 754 mmHg 50%
    14:00 +31°C° 0.1 mm 1 mps 753 mmHg 51%
    15:00 +31°C° 0.1 mm 2 mps 753 mmHg 51%
    16:00 +31°C° 0.1 mm 2 mps 753 mmHg 52%
    17:00 +30°C° 0 mm 2 mps 753 mmHg 55%
    18:00 +29°C° 0 mm 1 mps 753 mmHg 57%
    19:00 +28°C° 0 mm 1 mps 753 mmHg 60%
    20:00 +27°C° 0.2 mm 2 mps 753 mmHg 65%
    21:00 +26°C° 0.2 mm 2 mps 753 mmHg 69%
    22:00 +25°C° 0.2 mm 2 mps 753 mmHg 73%
    23:00 +24°C° 0.2 mm 2 mps 753 mmHg 79%

    22 January, Monday

    Time Temperature Precipitation Wind Pressure Humidity
    00:00 +23°C° 0.2 mm 2 mps 753 mmHg 86%
    01:00 +22°C° 0.2 mm 1 mps 752 mmHg 93%
    02:00 +20°C° 0 mm 2 mps 752 mmHg 94%
    03:00 +20°C° 0 mm 2 mps 752 mmHg 95%
    04:00 +20°C° 0 mm 2 mps 752 mmHg 96%
    05:00 +20°C° 0 mm 2 mps 753 mmHg 94%
    06:00 +20°C° 0 mm 2 mps 753 mmHg 92%
    07:00 +21°C° 0 mm 2 mps 754 mmHg 91%
    08:00 +21°C° 0 mm 3 mps 754 mmHg 86%
    09:00 +22°C° 0 mm 3 mps 754 mmHg 81%
    10:00 +24°C° 0 mm 3 mps 754 mmHg 76%
    11:00 +25°C° 0 mm 3 mps 754 mmHg 69%
    12:00 +27°C° 0 mm 3 mps 754 mmHg 62%
    13:00 +28°C° 0 mm 3 mps 753 mmHg 55%
    14:00 +28°C° 0 mm 4 mps 753 mmHg 55%
    15:00 +28°C° 0 mm 4 mps 753 mmHg 54%
    16:00 +27°C° 0 mm 5 mps 753 mmHg 54%
    17:00 +26°C° 0 mm 5 mps 754 mmHg 58%
    18:00 +23°C° 0 mm 5 mps 754 mmHg 63%
    19:00 +21°C° 0 mm 4 mps 755 mmHg 67%
    20:00 +20°C° 0 mm 4 mps 755 mmHg 73%
    21:00 +19°C° 0 mm 4 mps 756 mmHg 78%
    22:00 +18°C° 0 mm 3 mps 756 mmHg 83%
    23:00 +17°C° 0 mm 3 mps 756 mmHg 84%

    23 January, Tuesday

    Time Temperature Precipitation Wind Pressure Humidity
    00:00 +17°C° 0 mm 3 mps 756 mmHg 85%
    01:00 +17°C° 0 mm 3 mps 756 mmHg 85%
    02:00 +17°C° 0 mm 3 mps 756 mmHg 86%
    03:00 +16°C° 0 mm 3 mps 756 mmHg 86%
    04:00 +16°C° 0 mm 3 mps 756 mmHg 86%
    05:00 +17°C° 0 mm 3 mps 756 mmHg 84%
    06:00 +17°C° 0 mm 3 mps 757 mmHg 81%
    07:00 +17°C° 0 mm 3 mps 757 mmHg 78%
    08:00 +19°C° 0 mm 3 mps 757 mmHg 71%
    09:00 +21°C° 0 mm 3 mps 757 mmHg 64%
    10:00 +22°C° 0 mm 3 mps 757 mmHg 57%
    11:00 +25°C° 0 mm 3 mps 756 mmHg 53%
    12:00 +26°C° 0 mm 4 mps 756 mmHg 48%
    13:00 +27°C° 0 mm 4 mps 756 mmHg 44%
    14:00 +27°C° 0 mm 4 mps 755 mmHg 45%
    15:00 +27°C° 0 mm 5 mps 755 mmHg 47%
    16:00 +27°C° 0 mm 5 mps 755 mmHg 48%
    17:00 +25°C° 0 mm 5 mps 755 mmHg 54%
    18:00 +23°C° 0 mm 4 mps 756 mmHg 59%
    19:00 +21°C° 0 mm 4 mps 756 mmHg 64%
    20:00 +20°C° 0 mm 4 mps 756 mmHg 70%
    21:00 +19°C° 0 mm 3 mps 756 mmHg 75%
    22:00 +17°C° 0 mm 3 mps 757 mmHg 81%
    23:00 +17°C° 0 mm 2 mps 756 mmHg 84%

    24 January, Wednesday

    Time Temperature Precipitation Wind Pressure Humidity
    00:00 +16°C° 0 mm 2 mps 756 mmHg 87%
    01:00 +16°C° 0 mm 2 mps 756 mmHg 90%
    02:00 +15°C° 0 mm 2 mps 756 mmHg 91%
    03:00 +15°C° 0 mm 2 mps 755 mmHg 92%
    04:00 +15°C° 0 mm 2 mps 755 mmHg 93%
    05:00 +16°C° 0 mm 2 mps 756 mmHg 89%
    06:00 +17°C° 0 mm 2 mps 756 mmHg 86%
    07:00 +18°C° 0 mm 2 mps 756 mmHg 82%
    08:00 +20°C° 0 mm 2 mps 756 mmHg 73%
    09:00 +23°C° 0 mm 2 mps 756 mmHg 64%
    10:00 +25°C° 0 mm 2 mps 756 mmHg 55%
    11:00 +27°C° 0 mm 3 mps 756 mmHg 50%
    12:00 +29°C° 0 mm 3 mps 755 mmHg 46%
    13:00 +30°C° 0 mm 4 mps 755 mmHg 42%
    14:00 +30°C° 0 mm 4 mps 754 mmHg 43%
    15:00 +29°C° 0 mm 4 mps 754 mmHg 44%
    16:00 +29°C° 0 mm 4 mps 754 mmHg 45%
    17:00 +27°C° 0 mm 4 mps 754 mmHg 50%
    18:00 +25°C° 0 mm 4 mps 754 mmHg 54%
    19:00 +23°C° 0 mm 4 mps 754 mmHg 59%
    20:00 +21°C° 0 mm 4 mps 755 mmHg 65%
    21:00 +20°C° 0 mm 3 mps 755 mmHg 71%
    22:00 +19°C° 0 mm 3 mps 755 mmHg 77%
    23:00 +18°C° 0 mm 3 mps 755 mmHg 80%
    Show more